Stoneville, NC

1:27 AM EST on February 08, 2016 (GMT -0500)
Reidsville

Weather History for KSIF - April, 2013

Change the Weather History Date:

Monday, April 1, 2013

  Actual Average (KGSO) Record (KGSO)
Temperature  
Mean Temperature 56 °F 55 °F  
Max Temperature 70 °F 66 °F 90 °F (1910)
Min Temperature 41 °F 43 °F 20 °F (1923)
Degree Days  
Heating Degree Days 10 11  
Month to date heating degree days 11  
Since 1 July heating degree days 3336  
Cooling Degree Days 0 0  
Month to date cooling degree days 0  
Year to date cooling degree days 5  
Growing Degree Days 6 (Base 50)    
Moisture  
Dew Point 42 °F    
Average Humidity 62    
Maximum Humidity 100    
Minimum Humidity 31    
Precipitation  
Precipitation 0.00 in 0.13 in 1.31 in (1927)
Month to date precipitation 0.13  
Year to date precipitation 9.88  
Snow  
Snow 0.00 in 0.00 in T in (1993)
Month to date snowfall 0.0  
Since 1 July snowfall 7.5  
Snow Depth -    
Sea Level Pressure  
Sea Level Pressure 29.88 in    
Wind  
Wind Speed 4 mph (WNW)    
Max Wind Speed 16 mph    
Max Gust Speed 26 mph    
Visibility 9 miles    
Events Rain    
T = Trace of Precipitation, MM = Missing Value Source: NWS Daily Summary

Daily Weather History Graph

Daily Weather History Graph

Search for Another Location

Airport or City:

Trip Planner

Search our weather history database for the weather conditions in past years. The results will help you decide how hot, cold, wet, or windy it might be!

Date:

Astronomy

Apr. 01, 2013 Rise Set
Actual Time 7:05 AM EDT 7:41 PM EDT
Civil Twilight 6:39 AM EDT 8:07 PM EDT
Nautical Twilight 6:08 AM EDT 8:38 PM EDT
Astronomical Twilight 5:37 AM EDT 9:09 PM EDT
Moon 12:41 AM EDT (4/1) 10:57 AM EDT (4/1)
Length of Visible Light 13h 28m
Length of Day
12h 36m
Waning Gibbous, 67% of the Moon is Illuminated
Apr 1
Waning Gibbous
Apr 3
Last Quarter
Apr 10
New
Apr 18
First Quarter
Apr 25
Full

Hourly Weather History & Observations

Time (EDT) Temp. Windchill Dew Point Humidity Pressure Visibility Wind Dir Wind Speed Gust Speed Precip Events Conditions
12:15 AM 55.9 °F - 54.0 °F 93% 29.84 in 10.0 mi SSW 4.6 mph - N/A   Overcast
12:35 AM 55.9 °F - 53.6 °F 92% 29.84 in 10.0 mi Calm Calm - N/A   Overcast
12:55 AM 55.8 °F - 53.6 °F 92% 29.85 in 10.0 mi WSW 3.5 mph - N/A Rain Light Rain
1:15 AM 55.8 °F - 53.6 °F 92% 29.85 in 10.0 mi WSW 3.5 mph - N/A   Overcast
1:35 AM 55.6 °F - 53.6 °F 93% 29.84 in 10.0 mi WSW 3.5 mph - N/A   Light Drizzle
1:55 AM 55.4 °F - 53.4 °F 93% 29.85 in 10.0 mi Calm Calm - N/A Rain Light Rain
2:15 AM 55.0 °F - 53.6 °F 95% 29.84 in 10.0 mi WSW 3.5 mph - N/A Rain Light Rain
2:35 AM 54.5 °F - 53.1 °F 95% 29.84 in 10.0 mi Calm Calm - N/A Rain Light Rain
2:55 AM 54.1 °F - 52.7 °F 95% 29.84 in 10.0 mi Calm Calm - N/A   Overcast
3:15 AM 53.4 °F - 52.3 °F 96% 29.84 in 10.0 mi Calm Calm - N/A   Overcast
3:35 AM 52.0 °F - 51.1 °F 97% 29.84 in 10.0 mi Calm Calm - N/A   Mostly Cloudy
3:55 AM 51.3 °F - 50.4 °F 97% 29.83 in 10.0 mi Calm Calm - N/A   Overcast
4:15 AM 48.4 °F - 48.0 °F 99% 29.83 in 2.0 mi Calm Calm - N/A   Mostly Cloudy
4:35 AM 47.8 °F - 47.3 °F 98% 29.84 in 1.2 mi Calm Calm - N/A   Mist
4:55 AM 46.4 °F - 46.0 °F 99% 29.84 in 1.0 mi Calm Calm - N/A   Mist
5:15 AM 46.8 °F - 46.8 °F 100% 29.85 in 2.0 mi Calm Calm - N/A   Clear
5:35 AM 43.5 °F - 43.3 °F 99% 29.86 in 2.5 mi Calm Calm - N/A   Clear
5:55 AM 45.3 °F - 45.3 °F 100% 29.86 in 10.0 mi Calm Calm - N/A   Clear
6:15 AM 44.4 °F - 44.4 °F 100% 29.87 in 1.8 mi Calm Calm - N/A   Mist
6:35 AM 43.7 °F - 43.7 °F 100% 29.87 in 4.0 mi Calm Calm - N/A   Clear
6:55 AM 41.7 °F - 41.7 °F 100% 29.88 in 4.0 mi Calm Calm - N/A   Clear
7:15 AM 43.2 °F - 43.2 °F 100% 29.88 in 10.0 mi Calm Calm - N/A   Clear
7:35 AM 42.1 °F - 42.1 °F 100% 29.88 in 10.0 mi Calm Calm - N/A   Clear
7:55 AM 43.5 °F 41.9 °F 43.5 °F 100% 29.89 in 10.0 mi SSW 3.5 mph - N/A   Clear
8:15 AM 47.5 °F - 47.5 °F 100% 29.89 in 10.0 mi West 4.6 mph - N/A   Clear
8:35 AM 51.1 °F - 45.7 °F 82% 29.90 in 10.0 mi SW 4.6 mph - N/A   Clear
8:55 AM 54.0 °F - 45.5 °F 73% 29.89 in 10.0 mi SW 3.5 mph - N/A   Clear
9:15 AM 55.4 °F - 44.4 °F 67% 29.88 in 10.0 mi WSW 3.5 mph - N/A   Clear
9:35 AM 57.2 °F - 44.1 °F 62% 29.89 in 10.0 mi West 5.8 mph - N/A   Clear
9:55 AM 59.2 °F - 43.0 °F 55% 29.88 in 10.0 mi West 5.8 mph - N/A   Clear
10:15 AM 60.8 °F - 42.4 °F 51% 29.88 in 10.0 mi West 6.9 mph - N/A   Clear
10:35 AM 61.9 °F - 41.4 °F 47% 29.88 in 10.0 mi WNW 4.6 mph - N/A   Clear
10:55 AM 63.5 °F - 39.6 °F 41% 29.88 in 10.0 mi West 6.9 mph - N/A   Clear
11:15 AM 64.0 °F - 40.1 °F 41% 29.88 in 10.0 mi West 6.9 mph - N/A   Clear
11:35 AM 65.1 °F - 39.9 °F 40% 29.88 in 10.0 mi West 5.8 mph - N/A   Clear
11:55 AM 65.7 °F - 39.6 °F 38% 29.88 in 10.0 mi WNW 5.8 mph - N/A   Clear
12:15 PM 66.2 °F - 39.0 °F 37% 29.88 in 10.0 mi WNW 6.9 mph 21.9 mph N/A   Clear
12:35 PM 67.8 °F - 39.2 °F 35% 29.87 in 10.0 mi West 11.5 mph 19.6 mph N/A   Clear
12:55 PM 68.9 °F - 38.3 °F 33% 29.86 in 10.0 mi West 9.2 mph 18.4 mph N/A   Clear
1:15 PM 68.4 °F - 38.1 °F 33% 29.86 in 10.0 mi West 9.2 mph 20.7 mph N/A   Scattered Clouds
1:35 PM 69.8 °F - 38.3 °F 32% 29.86 in 10.0 mi West 11.5 mph 24.2 mph N/A   Scattered Clouds
1:55 PM 68.0 °F - 36.5 °F 31% 29.86 in 10.0 mi West 10.4 mph 19.6 mph N/A   Scattered Clouds
2:15 PM 70.0 °F - 37.6 °F 31% 29.86 in 10.0 mi West 13.8 mph 21.9 mph N/A   Scattered Clouds
2:35 PM 68.2 °F - 36.7 °F 31% 29.86 in 10.0 mi West 16.1 mph 26.5 mph N/A   Mostly Cloudy
2:55 PM 66.6 °F - 36.3 °F 33% 29.86 in 10.0 mi West 15.0 mph 25.3 mph N/A   Overcast
3:15 PM 66.6 °F - 36.9 °F 33% 29.85 in 10.0 mi West 13.8 mph 18.4 mph N/A   Overcast
3:35 PM 64.9 °F - 36.7 °F 35% 29.86 in 10.0 mi West 11.5 mph 23.0 mph N/A   Overcast
3:55 PM 65.3 °F - 37.8 °F 36% 29.86 in 10.0 mi West 12.7 mph 21.9 mph N/A   Overcast
4:15 PM 67.1 °F - 38.3 °F 35% 29.85 in 10.0 mi WNW 10.4 mph 21.9 mph N/A   Mostly Cloudy
4:35 PM 66.2 °F - 39.0 °F 37% 29.86 in 10.0 mi WNW 8.1 mph 17.3 mph N/A   Mostly Cloudy
4:55 PM 65.3 °F - 40.1 °F 40% 29.86 in 10.0 mi West 9.2 mph - N/A   Mostly Cloudy
5:15 PM 64.6 °F - 38.8 °F 39% 29.86 in 10.0 mi WNW 12.7 mph 18.4 mph N/A   Mostly Cloudy
5:35 PM 63.7 °F - 38.8 °F 40% 29.86 in 10.0 mi West 11.5 mph 20.7 mph N/A   Overcast
5:55 PM 63.0 °F - 39.4 °F 42% 29.86 in 10.0 mi West 10.4 mph 17.3 mph N/A   Overcast
6:15 PM 62.6 °F - 39.0 °F 42% 29.86 in 10.0 mi WNW 6.9 mph - N/A   Overcast
6:35 PM 62.6 °F - 37.4 °F 39% 29.87 in 10.0 mi WNW 10.4 mph - N/A   Overcast
6:55 PM 61.9 °F - 36.1 °F 38% 29.87 in 10.0 mi WNW 6.9 mph 17.3 mph N/A   Overcast
7:15 PM 61.2 °F - 36.1 °F 39% 29.88 in 10.0 mi WNW 9.2 mph - N/A   Overcast
7:35 PM 60.3 °F - 36.0 °F 40% 29.88 in 10.0 mi WNW 5.8 mph - N/A   Mostly Cloudy
7:55 PM 59.5 °F - 35.6 °F 41% 29.89 in 10.0 mi WNW 8.1 mph - N/A   Scattered Clouds
8:15 PM 58.6 °F - 35.1 °F 41% 29.90 in 10.0 mi WNW 6.9 mph - N/A   Scattered Clouds
8:35 PM 57.7 °F - 34.5 °F 42% 29.90 in 10.0 mi WNW 5.8 mph - N/A   Clear
8:55 PM 56.7 °F - 34.2 °F 43% 29.91 in 10.0 mi NW 3.5 mph - N/A   Scattered Clouds
9:15 PM 56.3 °F - 34.2 °F 43% 29.91 in 10.0 mi NW 4.6 mph - N/A   Scattered Clouds
9:35 PM 55.8 °F - 33.1 °F 42% 29.92 in 10.0 mi NW 5.8 mph - N/A   Scattered Clouds
9:55 PM 54.5 °F - 33.1 °F 44% 29.94 in 10.0 mi North 9.2 mph - N/A   Clear
10:15 PM 52.9 °F - 33.6 °F 48% 29.96 in 10.0 mi North 6.9 mph - N/A   Clear
10:35 PM 51.1 °F - 34.2 °F 52% 29.96 in 10.0 mi NNW 12.7 mph 16.1 mph N/A   Clear
10:55 PM 49.6 °F - 34.2 °F 55% 29.97 in 10.0 mi North 6.9 mph - N/A   Clear
11:15 PM 48.7 °F - 33.8 °F 56% 29.99 in 10.0 mi North 4.6 mph - N/A   Clear
11:35 PM 48.2 °F - 33.1 °F 56% 30.00 in 10.0 mi North 4.6 mph - N/A   Scattered Clouds
11:55 PM 47.5 °F - 32.9 °F 57% 30.01 in 10.0 mi North 5.8 mph - N/A   Mostly Cloudy